Regional Weather Roundup
Issued by NWS

Home | Current Version | Previous Version | Graphics & Text | Print | Product List | Glossary On
Versions: 1 2 3 4 5 6 7 8 9 10 11 12 13 14 15 16 17 18 19 20 21 22 23 24 25 26 27 28 29 30 31 32 33 34 35 36 37 38 39 40 41 42 43 44 45 46 47 48 49 50
000
ASUS43 KFSD 281810
RWRSD

WEATHER ROUNDUP FOR SOUTH DAKOTA
NATIONAL WEATHER SERVICE SIOUX FALLS SD
100 PM CDT SUN MAY 28 2017

NOTE: "FAIR" INDICATES FEW OR NO CLOUDS BELOW 12,000 FEET WITH NO
SIGNIFICANT WEATHER AND/OR OBSTRUCTIONS TO VISIBILITY.


SDZ001>005-009-010-012>017-281900-
NORTHWEST AND NORTH CENTRAL SOUTH DAKOTA

CITY           SKY/WX    TMP DP  RH WIND       PRES   REMARKS
BUFFALO          N/A     73  38  27 W24G33    29.98F
FAITH            N/A     72  34  24 NW18G29   30.00F
MOBRIDGE       SUNNY     74  38  27 NW17G31   29.91F
$$

SDZ012>016-024>037-041>051-057-063-072>074-281900-
SOUTHWEST AND SOUTH CENTRAL SOUTH DAKOTA

CITY           SKY/WX    TMP DP  RH WIND       PRES   REMARKS
RAPID CTY ARPT MOSUNNY   72  35  25 N20G26    30.09F
PIERRE         SUNNY     75  35  23 NW18G29   29.97S
CUSTER         LGT RAIN  59  35  40 NW12G22   30.17S
ELLSWORTH AFB  MOSUNNY   70  37  29 NW23      30.09S
PHILIP         MOSUNNY   75  34  22 NW15G26   30.02F
PINE RIDGE     MOSUNNY   69  43  38 N8        30.11F
SPEARFISH      FAIR      64  41  42 NW7G23    30.13F
WINNER         FAIR      74  40  29 NW24G30   30.00S
$$

SDZ004>011-016>023-039-040-281900-
NORTHEAST SOUTH DAKOTA

CITY           SKY/WX    TMP DP  RH WIND       PRES   REMARKS
ABERDEEN       SUNNY     73  35  25 NW25G39   29.87S
WATERTOWN      MOSUNNY   68  44  42 NW22G29   29.85S
BROOKINGS      PTSUNNY   68  45  43 NW21      29.86F
SISSETON         N/A     72  43  35 NW29      29.79F
$$

SDZ017-020-022-023-036>040-048>070-281900-
SOUTHEAST SOUTH DAKOTA

CITY           SKY/WX    TMP DP  RH WIND       PRES   REMARKS
SIOUX FALLS    MOSUNNY   70  47  43 NW17G25   29.89R
HURON          MOSUNNY   73  41  31 NW20G31   29.89S
CHAMBERLAIN    SUNNY     76  37  25 NW17G29   29.96S
MITCHELL       MOSUNNY   75  39  27 NW23G31   29.92S
YANKTON        SUNNY     72  44  36 NW24G35   29.92R
$$

ABBREVIATIONS USED IN REMARKS
   TC - TEMPERATURE IN CELSIUS
  WCI - WIND CHILL INDEX
   HX - HEAT INDEX
  VSB - VISIBILITY




USA.gov is the U.S. government's official web portal to all federal, state and local government web resources and services.